Regional Weather Roundup
Issued by NWS Goodland, KS

Home | Current Version | Previous Version | Graphics & Text | Print | Product List | Glossary On
Versions: 1 2 3 4 5 6 7 8 9 10 11 12 13 14 15 16 17 18 19 20 21 22 23 24 25 26 27 28 29 30 31 32 33 34 35 36 37 38 39 40 41 42 43 44 45 46 47 48 49 50
000
ASUS43 KGLD 012159
RWRGLD

GOODLAND FORECAST AREA HOURLY WEATHER ROUNDUP
NATIONAL WEATHER SERVICE GOODLAND KS
300 PM MST SUN MAR 01 2015

...OFFICIAL OBSERVATIONS...

CITY           SKY/WX    TMP DP  RH WIND       PRES   REMARKS
GOODLAND KS    PTSUNNY   33  17  51 NE10      30.27R
HILL CITY KS   PTSUNNY   35  19  52 VRB3      30.33F
IMPERIAL NEB     N/A     37  12  35 N6        30.28R
MCCOOK NEB     SUNNY     41  10  28 N10       30.30R
AKRON CO       MOSUNNY   31  15  52 E6        30.23R
BURLINGTON CO  CLOUDY    31  18  58 NE14      30.24S
LIMON CO       CLOUDY    25  16  68 N9        30.20S
$$

...UNOFFICIAL OBSERVATIONS...

CITY           SKY/WX    TMP DP  RH WIND       PRES   REMARKS
COLBY KS       SUNNY     36  19  51 N12       30.29S
GOVE KS          N/A     33  32  96 MISG        N/A
LENORA KS        N/A     35  32  89 S6          N/A
NORTON KS      SUNNY     39   9  28 NW3       30.30S
SHARON SPRINGS   N/A     31  23  72 NE5         N/A
KIT CARSON CO    N/A     30  21  69 MISG        N/A
YUMA CO          N/A     34  15  46 NE8         N/A
$$


USA.gov is the U.S. government's official web portal to all federal, state and local government web resources and services.